FW5626 Bellevue WA US current weather conditions

sailwx.info

Wind from 359 at 2 knots gusting 9

Air temperature 22.2° C
Dewpoint 10.7° C

Last reported at 2020-Aug-13 23:05 UTC.
Time now 2020-Aug-13 23:47 UTC

Location: N 47°33' W 122°08'.
View on Google Maps.

See reports from other nearby stations

  
Tides and Currents Weather Stations Pressure Air Temp Water Temp Dewpoint Dewpoint Depression Visibility Wind Speed Wind Dir Waves Ship Positions
date/time (UTC)wind fromknots sea level pressurealtimeterstation pressurevisibilityair tempwater tempwave heightnotes
2020-Aug-13 23:05 359 2 gusting 9 22.2
2020-Aug-13 23:00 035 2 gusting 6 22.2
2020-Aug-13 22:55 070 1 gusting 6 22.8
2020-Aug-13 22:50 078 1 gusting 6 23.3
2020-Aug-13 22:45 050 1 gusting 4 23.3
2020-Aug-13 22:40 013 1 gusting 4 23.3
2020-Aug-13 22:35 325 0 gusting 4 22.8
2020-Aug-13 22:30 283 0 gusting 5 23.3
2020-Aug-13 22:25 274 1 gusting 5 23.3
2020-Aug-13 22:20 269 1 gusting 5 23.3
2020-Aug-13 22:15 261 0 gusting 5 23.3
2020-Aug-13 22:10 201 0 gusting 5 23.3
2020-Aug-13 22:05 152 0 gusting 5 23.3
2020-Aug-13 22:00 032 0 gusting 4 22.8
2020-Aug-13 21:55 023 0 gusting 4 22.2
2020-Aug-13 21:50 025 0 gusting 2 22.2
2020-Aug-13 21:45 031 0 gusting 4 22.2
2020-Aug-13 21:40 067 1 gusting 4 21.7
2020-Aug-13 21:35 058 1 gusting 5 21.7
2020-Aug-13 21:30 348 1 gusting 5 21.7
2020-Aug-13 21:25 314 1 gusting 4 21.7
2020-Aug-13 21:20 317 1 gusting 5 21.7
2020-Aug-13 21:15 313 1 gusting 6 21.7
2020-Aug-13 21:10 333 2 gusting 6 22.2
2020-Aug-13 21:05 342 1 gusting 6 22.2
2020-Aug-13 21:00 313 1 gusting 6 22.2
2020-Aug-13 20:55 327 0 gusting 6 22.2
2020-Aug-13 20:50 009 0 gusting 4 21.7
2020-Aug-13 20:45 013 0 gusting 4 21.1
2020-Aug-13 20:40 017 1 gusting 6 21.1
2020-Aug-13 20:35 352 1 gusting 6 21.1
2020-Aug-13 20:30 336 0 gusting 6 21.1
2020-Aug-13 20:25 329 0 gusting 4 21.1
2020-Aug-13 20:20 316 1 gusting 4 21.1
2020-Aug-13 20:15 290 1 gusting 7 21.1
2020-Aug-13 20:10 297 1 gusting 7 20.6
2020-Aug-13 20:05 293 1 gusting 7 20.6
2020-Aug-13 20:00 221 1 gusting 7 20.6
2020-Aug-13 19:55 113 1 gusting 5 20.0
2020-Aug-13 19:50 040 1 gusting 5 20.0
2020-Aug-13 19:45 033 1 gusting 4 19.4
2020-Aug-13 19:40 034 1 gusting 4 19.4
2020-Aug-13 19:35 021 1 gusting 5 19.4
2020-Aug-13 19:30 008 1 gusting 5 20.0
2020-Aug-13 19:25 002 0 gusting 5 20.6
2020-Aug-13 19:20 322 1 gusting 4 20.6
2020-Aug-13 19:15 314 1 gusting 7 20.6
2020-Aug-13 19:10 298 1 gusting 7 20.0
2020-Aug-13 19:05 252 1 gusting 7 20.0
2020-Aug-13 19:00 311 1 gusting 7 20.0
2020-Aug-13 18:55 336 0 gusting 5 20.0
2020-Aug-13 18:50 340 0 gusting 5 20.0
2020-Aug-13 18:45 344 0 gusting 5 20.0
2020-Aug-13 18:40 344 0 gusting 5 19.4
2020-Aug-13 18:35 331 0 gusting 3 20.0
2020-Aug-13 18:25 307 0 gusting 3 19.4
2020-Aug-13 18:20 292 0 gusting 4 18.9
2020-Aug-13 18:15 279 0 gusting 4 18.9
2020-Aug-13 18:10 277 0 gusting 5 18.9
2020-Aug-13 18:05 282 0 gusting 5 18.9
2020-Aug-13 18:00 279 0 gusting 5 18.9
2020-Aug-13 17:55 277 0 gusting 5 18.9
2020-Aug-13 17:50 350 0 gusting 5 18.3
2020-Aug-13 17:45 056 0 gusting 5 18.9
2020-Aug-13 17:40 067 0 gusting 5 18.9
2020-Aug-13 17:35 062 0 gusting 5 18.3
2020-Aug-13 17:30 034 0 gusting 4 17.8
2020-Aug-13 17:25 015 0 gusting 5 17.8
2020-Aug-13 17:20 064 0 gusting 5 17.2
2020-Aug-13 17:15 070 0 gusting 3 17.2
2020-Aug-13 17:10 070 0 gusting 2 17.2
2020-Aug-13 17:05 070 0 gusting 3 17.2
2020-Aug-13 17:00 068 0 gusting 3 17.2
2020-Aug-13 16:55 061 0 gusting 3 17.2
2020-Aug-13 16:50 059 0 gusting 3 17.2
2020-Aug-13 16:40 055 1 gusting 3 17.2
2020-Aug-13 16:35 050 1 gusting 3 17.2
2020-Aug-13 16:30 045 1 gusting 4 16.7
2020-Aug-13 16:25 044 1 gusting 4 16.1
2020-Aug-13 16:20 042 1 gusting 4 16.1
2020-Aug-13 16:15 030 1 gusting 5 16.1
2020-Aug-13 16:10 016 0 gusting 5 16.1
2020-Aug-13 16:05 006 0 gusting 3 15.6
2020-Aug-13 16:00 006 0 gusting 3 16.1
2020-Aug-13 15:55 005 0 gusting 1 16.1
2020-Aug-13 15:50 005 0 gusting 2 16.1
2020-Aug-13 15:45 005 1 gusting 4 15.6
2020-Aug-13 15:40 002 1 gusting 4 15.6
2020-Aug-13 15:35 358 1 gusting 2 15.0
2020-Aug-13 15:25 356 0 gusting 4 14.4
2020-Aug-13 15:20 357 0 gusting 2 14.4
2020-Aug-13 15:15 357 0 gusting 2 13.9
2020-Aug-13 15:10 357 0 gusting 2 13.9
2020-Aug-13 15:05 357 0 gusting 2 13.3
2020-Aug-13 14:55 357 0 gusting 3 13.3
2020-Aug-13 14:50 357 1 gusting 2 12.8
2020-Aug-13 14:45 348 1 gusting 4 12.8
2020-Aug-13 14:40 341 0 gusting 4 12.2
2020-Aug-13 14:35 334 0 gusting 4 12.2
2020-Aug-13 14:30 333 12.2
2020-Aug-13 14:25 333 11.7
2020-Aug-13 14:20 11.7
2020-Aug-13 14:15 11.1
2020-Aug-13 14:10 11.1
2020-Aug-13 14:05 11.1
2020-Aug-13 14:00 11.1
2020-Aug-13 13:55 11.1
2020-Aug-13 13:50 11.1
2020-Aug-13 13:45 11.1
2020-Aug-13 13:40 11.1
2020-Aug-13 13:35 11.1
2020-Aug-13 13:30 333 11.1
2020-Aug-13 13:25 333 0 gusting 2 11.1
2020-Aug-13 13:20 333 0 gusting 2 11.1
2020-Aug-13 13:15 334 0 gusting 2 11.1
2020-Aug-13 13:10 334 11.1
2020-Aug-13 13:05 333 11.1
2020-Aug-13 13:00 11.1
2020-Aug-13 12:55 11.1
2020-Aug-13 12:50 11.1
2020-Aug-13 12:45 11.1
2020-Aug-13 12:40 11.1
2020-Aug-13 12:35 11.1
2020-Aug-13 12:30 11.1
2020-Aug-13 12:25 11.1
2020-Aug-13 12:20 11.1
2020-Aug-13 12:15 11.1
2020-Aug-13 12:10 11.1
2020-Aug-13 12:05 11.1
2020-Aug-13 12:00 11.1
2020-Aug-13 11:55 11.1
2020-Aug-13 11:50 333 0 gusting 1 11.1
2020-Aug-13 11:45 334 0 gusting 2 11.1
2020-Aug-13 11:40 334 0 gusting 2 11.1
2020-Aug-13 11:35 334 11.1
2020-Aug-13 11:25 11.1
2020-Aug-13 11:20 11.1
2020-Aug-13 11:15 333 11.1
2020-Aug-13 11:10 334 0 gusting 1 11.1
2020-Aug-13 11:05 334 0 gusting 1 11.1
2020-Aug-13 11:00 334 0 gusting 2 11.1
2020-Aug-13 10:55 333 11.1
2020-Aug-13 10:50 11.1
2020-Aug-13 10:45 11.1
2020-Aug-13 10:40 11.1
2020-Aug-13 10:35 333 11.1
2020-Aug-13 10:30 333 11.1
2020-Aug-13 10:25 11.1
2020-Aug-13 10:20 11.1
2020-Aug-13 10:15 11.1
2020-Aug-13 10:10 11.1
2020-Aug-13 10:05 11.1
2020-Aug-13 10:00 11.7
2020-Aug-13 09:55 11.7
2020-Aug-13 09:50 11.7
2020-Aug-13 09:45 333 0 gusting 0 11.7
2020-Aug-13 09:40 334 0 gusting 1 12.2
2020-Aug-13 09:35 334 0 gusting 1 12.2
2020-Aug-13 09:30 334 0 gusting 1 12.2
2020-Aug-13 09:25 334 0 gusting 2 12.2
2020-Aug-13 09:20 334 12.2
2020-Aug-13 09:15 333 12.2
2020-Aug-13 09:10 12.2
2020-Aug-13 09:05 12.2
2020-Aug-13 09:00 12.2
2020-Aug-13 08:55 333 0 gusting 1 12.8
2020-Aug-13 08:50 334 0 gusting 1 12.8
2020-Aug-13 08:45 333 0 gusting 2 12.8
2020-Aug-13 08:40 333 0 gusting 2 12.8
2020-Aug-13 08:35 333 0 gusting 0 12.8
2020-Aug-13 08:25 334 13.3
2020-Aug-13 08:20 333 13.3
2020-Aug-13 08:15 13.3
2020-Aug-13 08:10 333 0 gusting 2 13.3
2020-Aug-13 08:05 334 0 gusting 2 13.3
2020-Aug-13 08:00 334 0 gusting 2 13.3
2020-Aug-13 07:55 334 0 gusting 2 13.3
2020-Aug-13 07:50 334 0 gusting 2 13.3
2020-Aug-13 07:45 333 0 gusting 1 13.3
2020-Aug-13 07:40 333 0 gusting 2 13.3
2020-Aug-13 07:35 333 0 gusting 2 13.3
2020-Aug-13 07:30 334 13.3
2020-Aug-13 07:25 333 13.3
2020-Aug-13 07:20 334 0 gusting 1 13.9
2020-Aug-13 07:15 333 0 gusting 2 13.9
2020-Aug-13 07:10 334 1 gusting 4 13.9
2020-Aug-13 07:05 333 1 gusting 4 14.4
2020-Aug-13 07:00 332 1 gusting 4 14.4
2020-Aug-13 06:55 331 1 gusting 4 14.4
2020-Aug-13 06:50 331 1 gusting 4 14.4
2020-Aug-13 06:45 331 1 gusting 3 14.4
2020-Aug-13 06:40 331 1 gusting 3 14.4
2020-Aug-13 06:35 331 0 gusting 2 14.4
2020-Aug-13 06:25 332 0 gusting 3 14.4
2020-Aug-13 06:20 331 0 gusting 3 14.4
2020-Aug-13 06:15 332 0 gusting 2 15.0
2020-Aug-13 06:10 332 0 gusting 2 15.0
2020-Aug-13 06:05 332 15.0
2020-Aug-13 06:00 332 0 gusting 3 15.0
2020-Aug-13 05:55 332 0 gusting 2 15.0
2020-Aug-13 05:50 331 0 gusting 2 15.6
2020-Aug-13 05:45 331 0 gusting 2 15.6
2020-Aug-13 05:40 331 0 gusting 2 15.6
2020-Aug-13 05:35 331 0 gusting 3 15.6
2020-Aug-13 05:30 330 0 gusting 3 15.6
2020-Aug-13 05:25 330 0 gusting 2 15.6
2020-Aug-13 05:20 330 0 gusting 2 15.6
2020-Aug-13 05:15 330 15.6
2020-Aug-13 05:10 329 15.6
2020-Aug-13 05:05 329 0 gusting 1 15.6
2020-Aug-13 05:00 330 0 gusting 1 15.6
2020-Aug-13 04:55 330 0 gusting 1 15.6
2020-Aug-13 04:50 330 15.6
2020-Aug-13 04:45 329 15.6
2020-Aug-13 04:40 15.6
2020-Aug-13 04:35 15.6
2020-Aug-13 04:30 15.6
2020-Aug-13 04:25 15.6
2020-Aug-13 04:20 15.6
2020-Aug-13 04:15 15.6
2020-Aug-13 04:05 16.1
2020-Aug-13 04:00 16.1
2020-Aug-13 03:55 16.1
2020-Aug-13 03:45 16.1
2020-Aug-13 03:40 16.7
2020-Aug-13 03:35 329 16.7
2020-Aug-13 03:30 329 16.7
2020-Aug-13 03:25 329 16.7
2020-Aug-13 03:20 17.2
2020-Aug-13 03:15 17.2
2020-Aug-13 03:10 17.2
2020-Aug-13 03:05 17.2
2020-Aug-13 03:00 17.8
2020-Aug-13 02:55 17.8
2020-Aug-13 02:50 17.8
2020-Aug-13 02:45 17.8
2020-Aug-13 02:40 17.8
2020-Aug-13 02:35 18.3
2020-Aug-13 02:30 18.3
2020-Aug-13 02:25 18.3
2020-Aug-13 02:20 18.3
2020-Aug-13 02:15 18.3
2020-Aug-13 02:10 329 18.3
2020-Aug-13 02:05 329 18.9
2020-Aug-13 02:00 329 18.9
2020-Aug-13 01:55 330 0 gusting 1 18.9
2020-Aug-13 01:50 330 0 gusting 1 18.9
2020-Aug-13 01:45 329 18.9
2020-Aug-13 01:40 329 18.9
2020-Aug-13 01:35 329 0 gusting 1 18.9
2020-Aug-13 01:30 329 0 gusting 2 19.4
2020-Aug-13 01:25 330 0 gusting 2 19.4
2020-Aug-13 01:20 330 0 gusting 2 19.4
2020-Aug-13 01:15 332 0 gusting 3 19.4
2020-Aug-13 01:10 331 0 gusting 5 19.4
2020-Aug-13 01:05 330 0 gusting 5 20.0
2020-Aug-13 01:00 328 20.0
2020-Aug-13 00:55 328 20.0
2020-Aug-13 00:50 20.0
2020-Aug-13 00:45 328 0 gusting 2 20.0
2020-Aug-13 00:40 321 0 gusting 4 20.0
2020-Aug-13 00:35 295 0 gusting 4 20.6
2020-Aug-13 00:30 271 0 gusting 4 21.1
2020-Aug-13 00:25 259 0 gusting 3 21.7
2020-Aug-13 00:20 245 0 gusting 4 22.2
2020-Aug-13 00:15 197 0 gusting 4 22.2
2020-Aug-13 00:10 145 0 gusting 4 22.2
2020-Aug-13 00:05 114 0 gusting 3 22.2
2020-Aug-13 00:00 101 0 gusting 3 21.7
2020-Aug-12 23:55 077 1 gusting 3 21.1
2020-Aug-12 23:45 120 0 gusting 4 21.1
2020-Aug-12 23:35 155 21.7
2020-Aug-12 23:30 22.2
2020-Aug-12 23:25 152 22.8
2020-Aug-12 23:20 154 22.8
2020-Aug-12 23:15 159 22.8
2020-Aug-12 23:10 168 0 gusting 2 22.2
2020-Aug-12 23:05 168 0 gusting 2 22.2
2020-Aug-12 23:00 169 0 gusting 5 22.2
2020-Aug-12 22:55 171 1 gusting 5 22.2
2020-Aug-12 22:50 171 1 gusting 4 22.2
2020-Aug-12 22:45 183 1 gusting 4 21.7
2020-Aug-12 22:40 198 1 gusting 6 21.7
2020-Aug-12 22:35 197 0 gusting 6 21.7
2020-Aug-12 22:30 195 0 gusting 4 21.1
2020-Aug-12 22:25 200 0 gusting 3 20.6
2020-Aug-12 22:20 233 0 gusting 4 20.6
2020-Aug-12 22:15 221 0 gusting 7 20.0
2020-Aug-12 22:10 215 0 gusting 7 20.0
2020-Aug-12 22:05 175 0 gusting 5 20.0
2020-Aug-12 22:00 178 19.4
2020-Aug-12 21:55 202 18.9
2020-Aug-12 21:50 203 18.9
2020-Aug-12 21:45 203 18.9
2020-Aug-12 21:40 203 0 gusting 1 19.4
2020-Aug-12 21:35 203 0 gusting 1 20.0
2020-Aug-12 21:30 204 0 gusting 3 20.0
2020-Aug-12 21:25 209 0 gusting 4 20.6
2020-Aug-12 21:20 213 0 gusting 4 20.6
2020-Aug-12 21:15 209 0 gusting 7 20.6
2020-Aug-12 21:10 197 0 gusting 7 20.6
2020-Aug-12 21:05 169 1 gusting 4 20.6
2020-Aug-12 21:00 166 1 gusting 5 20.0
2020-Aug-12 20:55 168 1 gusting 5 20.0
2020-Aug-12 20:50 186 1 gusting 4 20.0
2020-Aug-12 20:45 191 1 gusting 5 20.0
2020-Aug-12 20:40 178 1 gusting 6 20.0
2020-Aug-12 20:35 172 1 gusting 6 19.4
2020-Aug-12 20:30 173 1 gusting 5 19.4
2020-Aug-12 20:25 178 0 gusting 4 18.9
2020-Aug-12 20:20 175 0 gusting 4 18.9
2020-Aug-12 20:15 171 0 gusting 4 18.3
2020-Aug-12 20:10 178 0 gusting 8 18.3
2020-Aug-12 20:05 178 18.3
2020-Aug-12 20:00 162 17.8
2020-Aug-12 19:55 162 0 gusting 2 16.7
2020-Aug-12 19:50 171 0 gusting 3 16.7
2020-Aug-12 19:45 176 1 gusting 3 16.7
2020-Aug-12 19:40 179 1 gusting 5 16.7
2020-Aug-12 19:35 181 0 gusting 5 16.1
2020-Aug-12 19:30 183 0 gusting 5 16.1
2020-Aug-12 19:25 185 0 gusting 3 16.1
2020-Aug-12 19:20 183 0 gusting 3 15.6
2020-Aug-12 19:15 174 0 gusting 3 15.6
2020-Aug-12 19:10 171 0 gusting 4 15.0
2020-Aug-12 19:05 172 0 gusting 4 15.0
2020-Aug-12 19:00 174 0 gusting 4 14.4
2020-Aug-12 18:55 177 0 gusting 3 14.4
2020-Aug-12 18:50 177 0 gusting 3 14.4
2020-Aug-12 18:45 183 0 gusting 3 14.4
2020-Aug-12 18:40 186 0 gusting 2 14.4
2020-Aug-12 18:35 176 0 gusting 2 13.9
2020-Aug-12 18:25 173 0 gusting 3 13.9
2020-Aug-12 18:20 186 0 gusting 2 13.9
2020-Aug-12 18:15 192 13.9
2020-Aug-12 18:10 194 13.9
2020-Aug-12 18:05 193 13.9
2020-Aug-12 18:00 194 13.9
2020-Aug-12 17:50 193 0 gusting 2 14.4
2020-Aug-12 17:45 190 14.4
2020-Aug-12 17:40 183 14.4
2020-Aug-12 17:35 178 14.4
2020-Aug-12 17:30 178 14.4
2020-Aug-12 17:25 178 14.4
2020-Aug-12 17:20 177 14.4
2020-Aug-12 17:15 175 14.4
2020-Aug-12 17:10 175 14.4
2020-Aug-12 17:05 173 14.4
2020-Aug-12 17:00 173 14.4
2020-Aug-12 16:55 173 0 gusting 1 15.0
2020-Aug-12 16:50 173 0 gusting 3 15.0
2020-Aug-12 16:45 173 0 gusting 3 14.4
2020-Aug-12 16:40 174 0 gusting 3 14.4
2020-Aug-12 16:35 170 0 gusting 3 14.4
2020-Aug-12 16:30 171 0 gusting 3 14.4
2020-Aug-12 16:25 183 0 gusting 3 14.4
2020-Aug-12 16:20 190 0 gusting 3 14.4
2020-Aug-12 16:15 197 0 gusting 4 14.4
2020-Aug-12 16:10 197 0 gusting 4 14.4
2020-Aug-12 16:05 194 0 gusting 4 14.4
2020-Aug-12 16:00 196 0 gusting 3 13.9
2020-Aug-12 15:55 200 0 gusting 2 13.9
2020-Aug-12 15:50 201 0 gusting 3 13.9
2020-Aug-12 15:45 203 0 gusting 3 13.3
2020-Aug-12 15:40 198 0 gusting 4 13.3
2020-Aug-12 15:35 186 0 gusting 4 13.3
2020-Aug-12 15:25 181 0 gusting 4 13.3
2020-Aug-12 15:20 179 0 gusting 3 12.8
2020-Aug-12 15:15 178 0 gusting 3 12.8
2020-Aug-12 15:10 182 0 gusting 3 12.8
2020-Aug-12 15:05 192 0 gusting 3 12.8
2020-Aug-12 14:45 184 12.2
2020-Aug-12 14:40 181 12.2
2020-Aug-12 14:35 174 12.2
2020-Aug-12 14:30 172 12.2
2020-Aug-12 14:25 170 12.2
2020-Aug-12 14:20 170 12.2
2020-Aug-12 14:15 170 12.2
2020-Aug-12 14:10 171 12.2
2020-Aug-12 14:05 171 12.2
2020-Aug-12 14:00 171 12.2
2020-Aug-12 13:55 171 12.2
2020-Aug-12 13:50 171 12.2
2020-Aug-12 13:45 171 12.2
2020-Aug-12 13:40 169 12.2
2020-Aug-12 13:35 166 12.2
2020-Aug-12 13:30 166 12.2
2020-Aug-12 13:25 167 12.2
2020-Aug-12 13:20 169 12.2
2020-Aug-12 13:15 173 12.2
2020-Aug-12 13:10 173 12.2
2020-Aug-12 13:05 173 12.2
2020-Aug-12 13:00 173 12.2
2020-Aug-12 12:55 173 12.2
2020-Aug-12 12:50 172 12.2
2020-Aug-12 12:45 169 12.2
2020-Aug-12 12:40 169 12.2
2020-Aug-12 12:35 166 12.2
2020-Aug-12 12:30 167 12.2
2020-Aug-12 12:25 166 12.2
2020-Aug-12 12:20 165 12.2
2020-Aug-12 12:15 164 12.2
2020-Aug-12 12:10 169 12.2
2020-Aug-12 12:05 174 12.2
2020-Aug-12 12:00 177 12.2
2020-Aug-12 11:55 177 12.2
2020-Aug-12 11:50 174 12.2
2020-Aug-12 11:45 175 12.2
2020-Aug-12 11:40 177 12.2
2020-Aug-12 11:35 174 12.8
2020-Aug-12 11:30 164 12.8
2020-Aug-12 11:25 163 12.8
2020-Aug-12 11:20 164 12.8
2020-Aug-12 11:15 163 12.8
2020-Aug-12 11:10 155 0 gusting 3 12.8
2020-Aug-12 11:05 142 0 gusting 3 12.8
2020-Aug-12 11:00 123 0 gusting 3 12.8
2020-Aug-12 10:55 114 0 gusting 7 12.8
2020-Aug-12 10:50 104 0 gusting 7 12.8
2020-Aug-12 10:45 075 0 gusting 2 12.8
2020-Aug-12 10:40 074 0 gusting 3 12.8
2020-Aug-12 10:35 072 0 gusting 3 12.8
2020-Aug-12 10:30 068 13.3
2020-Aug-12 10:25 067 13.3
2020-Aug-12 10:20 13.3
2020-Aug-12 10:15 13.3
2020-Aug-12 10:10 066 0 gusting 1 13.3
2020-Aug-12 10:05 066 0 gusting 2 13.3
2020-Aug-12 10:00 066 0 gusting 2 13.3
2020-Aug-12 09:55 066 0 gusting 2 13.3
2020-Aug-12 09:50 066 0 gusting 2 13.3
2020-Aug-12 09:45 066 0 gusting 2 13.3
2020-Aug-12 09:40 066 0 gusting 2 13.3
2020-Aug-12 09:35 066 0 gusting 3 13.3
2020-Aug-12 09:30 066 0 gusting 3 13.3
2020-Aug-12 09:25 067 0 gusting 2 13.3
2020-Aug-12 09:20 067 0 gusting 3 13.3
2020-Aug-12 09:15 067 0 gusting 3 13.3
2020-Aug-12 09:05 067 0 gusting 3 13.3
2020-Aug-12 09:00 066 0 gusting 5 13.3
2020-Aug-12 08:55 063 0 gusting 5 13.3
2020-Aug-12 08:50 063 0 gusting 4 13.3
2020-Aug-12 08:45 062 0 gusting 3 13.3
2020-Aug-12 08:40 062 0 gusting 3 13.3
2020-Aug-12 08:35 062 0 gusting 2 12.8
2020-Aug-12 08:25 061 0 gusting 4 13.3
2020-Aug-12 08:20 055 1 gusting 3 13.3
2020-Aug-12 08:15 058 1 gusting 5 13.3
2020-Aug-12 08:10 065 1 gusting 5 13.3
2020-Aug-12 08:05 068 1 gusting 5 13.3
2020-Aug-12 08:00 066 1 gusting 5 13.3
2020-Aug-12 07:55 062 1 gusting 5 13.3
2020-Aug-12 07:50 062 1 gusting 5 13.3
2020-Aug-12 07:45 062 0 gusting 5 13.3
2020-Aug-12 07:40 059 0 gusting 3 13.3
2020-Aug-12 07:35 058 0 gusting 2 13.3
2020-Aug-12 07:30 058 0 gusting 3 13.3
2020-Aug-12 07:25 058 0 gusting 4 13.3
2020-Aug-12 07:20 059 0 gusting 4 13.3
2020-Aug-12 07:15 059 0 gusting 2 13.3
2020-Aug-12 07:10 054 0 gusting 4 13.3
2020-Aug-12 07:05 039 0 gusting 4 13.9
2020-Aug-12 06:55 359 1 gusting 1 13.9
2020-Aug-12 06:50 005 1 gusting 7 13.9
2020-Aug-12 06:45 009 0 gusting 7 13.9
2020-Aug-12 06:40 022 0 gusting 3 13.9
2020-Aug-12 06:35 044 0 gusting 3 13.9
2020-Aug-12 06:30 057 0 gusting 3 13.9
2020-Aug-12 06:25 018 1 gusting 6 13.9
2020-Aug-12 06:20 359 0 gusting 6 13.9
2020-Aug-12 06:15 004 0 gusting 5 14.4
2020-Aug-12 06:10 026 0 gusting 5 14.4
2020-Aug-12 06:05 027 0 gusting 5 14.4
2020-Aug-12 06:00 028 0 gusting 5 14.4
2020-Aug-12 05:55 045 0 gusting 5 14.4
2020-Aug-12 05:50 044 0 gusting 5 15.0
2020-Aug-12 05:45 041 0 gusting 3 15.0
2020-Aug-12 05:40 045 0 gusting 3 15.0
2020-Aug-12 05:35 061 0 gusting 3 15.0
2020-Aug-12 05:30 103 0 gusting 4 15.0
2020-Aug-12 05:25 129 15.6
2020-Aug-12 05:20 153 15.6
2020-Aug-12 05:15 161 0 gusting 1 15.6
2020-Aug-12 05:10 167 0 gusting 3 15.6
2020-Aug-12 05:05 187 0 gusting 3 16.1
2020-Aug-12 05:00 203 16.1
2020-Aug-12 04:55 203 16.7
2020-Aug-12 04:50 16.7
2020-Aug-12 04:45 16.7
2020-Aug-12 04:40 16.7
2020-Aug-12 04:35 16.7
2020-Aug-12 04:30 16.7
2020-Aug-12 04:25 16.7
2020-Aug-12 04:20 203 0 gusting 2 16.7
2020-Aug-12 04:15 204 0 gusting 5 16.7
2020-Aug-12 04:10 205 0 gusting 5 16.7
2020-Aug-12 04:05 206 0 gusting 3 17.2
2020-Aug-12 04:00 207 0 gusting 3 17.2
2020-Aug-12 03:55 210 0 gusting 5 17.2
2020-Aug-12 03:50 209 0 gusting 5 17.2
2020-Aug-12 03:45 207 1 gusting 5 17.8
2020-Aug-12 03:40 212 1 gusting 6 17.8
2020-Aug-12 03:35 215 1 gusting 7 17.8
2020-Aug-12 03:30 215 0 gusting 7 18.3
2020-Aug-12 03:25 210 0 gusting 4 18.3
2020-Aug-12 03:20 215 0 gusting 4 18.3
2020-Aug-12 03:15 222 0 gusting 3 18.3
2020-Aug-12 03:10 223 0 gusting 3 18.9
2020-Aug-12 03:05 218 0 gusting 7 18.9
2020-Aug-12 03:00 211 18.9
2020-Aug-12 02:55 208 18.9
2020-Aug-12 02:50 209 19.4
2020-Aug-12 02:45 210 0 gusting 2 19.4
2020-Aug-12 02:40 211 0 gusting 4 19.4
2020-Aug-12 02:35 211 0 gusting 4 20.0
2020-Aug-12 02:30 213 0 gusting 5 20.0
2020-Aug-12 02:25 214 0 gusting 6 20.0
2020-Aug-12 02:20 208 0 gusting 6 20.0
2020-Aug-12 02:15 197 0 gusting 5 20.6
2020-Aug-12 02:10 191 0 gusting 5 20.6
2020-Aug-12 02:05 190 0 gusting 5 20.6
2020-Aug-12 02:00 189 0 gusting 5 20.6
2020-Aug-12 01:55 190 0 gusting 4 21.1
2020-Aug-12 01:50 189 0 gusting 5 21.1
2020-Aug-12 01:45 189 1 gusting 5 21.1
2020-Aug-12 01:40 191 1 gusting 6 21.1
2020-Aug-12 01:35 194 1 gusting 6 21.1
2020-Aug-12 01:30 199 1 gusting 6 21.1
2020-Aug-12 01:25 199 1 gusting 9 21.7
2020-Aug-12 01:20 196 1 gusting 9 21.7
2020-Aug-12 01:15 197 0 gusting 10 21.7
2020-Aug-12 01:10 192 0 gusting 10 21.7
2020-Aug-12 01:05 179 0 gusting 5 21.7
2020-Aug-12 01:00 171 0 gusting 4 22.2
2020-Aug-12 00:50 172 1 gusting 5 22.2
2020-Aug-12 00:45 175 1 gusting 5 22.2
2020-Aug-12 00:40 185 0 gusting 5 22.2
2020-Aug-12 00:35 190 0 gusting 5 22.2
2020-Aug-12 00:30 183 1 gusting 4 22.8
2020-Aug-12 00:25 178 0 gusting 4 22.8
2020-Aug-12 00:20 172 0 gusting 5 23.3
2020-Aug-12 00:15 174 1 gusting 5 23.9
2020-Aug-12 00:10 190 1 gusting 5 24.4
2020-Aug-12 00:05 204 1 gusting 7 24.4
2020-Aug-12 00:00 204 1 gusting 7 25.0
2020-Aug-11 23:55 203 1 gusting 6 24.4
2020-Aug-11 23:50 208 1 gusting 10 24.4
2020-Aug-11 23:45 197 1 gusting 10 24.4
2020-Aug-11 23:40 197 1 gusting 10 24.4
2020-Aug-11 23:35 199 1 gusting 10 24.4
2020-Aug-11 23:30 191 2 gusting 6 24.4
2020-Aug-11 23:25 194 1 gusting 8 24.4
2020-Aug-11 23:20 205 1 gusting 8 24.4
2020-Aug-11 23:15 200 1 gusting 6 23.9
2020-Aug-11 23:10 189 1 gusting 6 23.9
2020-Aug-11 23:05 186 1 gusting 5 23.9
2020-Aug-11 23:00 191 2 gusting 6 23.9